Starlink 1338

operational
NORAD ID: 45532 Int'l Des: 2020-025 Owner: SPXS Country: US Constellation: starlink
LEOCIRCULARSTARLINK_TYPE

Über Starlink 1338

Beschreibung wird geladen...

Live-Position

3D-Globus wird geladen...

Nächste Überflüge

Höhenverlauf

Altitude vs Time

uPlot chart will show altitude changes over time

Zweizeiliger Elementsatz

1 45532U 20025B 25303.26324659 -.00001193 00000-0 -61189-4 0 9993
2 45532 53.0559 332.1236 0002288 80.9552 279.1696 15.06392729305436
Epoch: 30. Okt. 2025 • Age: 16 hours

Aktueller Status

Höhe 567.2 km
Geschwindigkeit 7.58 km/s
Subsatellitenpunkt -52.95°S, 135.39°W
Startdatum 22. Apr. 2020
Alter 5.5 years
Typ internet

Technische Details

Klassifizierung Payload
Masse 260.00 kg
Trockenmasse 248.00 kg
Gesamtmasse 260.00 kg
Länge 0.20 m
Durchmesser 2.80 m
Spannweite 9.00 m
Form Box + pan
Hersteller SPXS
Bus-Typ Starlink
Phasenstatus In Orbit
Besitzer/Staat SPXS/US

Große Konstellationen

Loading constellations...